Wheeling, WV

4:39 PM EST on December 06, 2019 (GMT -0500)
Wheeling-Ohio County

Weather History for KHLG - October, 2019

Change the Weather History Date:

Sunday, October 6, 2019

  Actual Average Record
Temperature  
Mean Temperature 63 °F 57 °F  
Max Temperature 69 °F 66 °F 90 °F (1941)
Min Temperature 56 °F 47 °F 27 °F (1935)
Degree Days  
Heating Degree Days 2 9  
Month to date heating degree days 18 49  
Since 1 July heating degree days 19 150  
Cooling Degree Days 0 1  
Month to date cooling degree days 40 6  
Year to date cooling degree days 986 684  
Growing Degree Days 12 (Base 50)    
Moisture  
Dew Point 58 °F    
Average Humidity 82    
Maximum Humidity 97    
Minimum Humidity 67    
Precipitation  
Precipitation 0.53 in 0.08 in 1.05 in (1918)
Month to date precipitation 0.53 0.51  
Year to date precipitation 28.51 30.28  
Sea Level Pressure  
Sea Level Pressure 30.11 in    
Wind  
Wind Speed 8 mph (SSW)    
Max Wind Speed 17 mph    
Max Gust Speed 23 mph    
Visibility 8 miles    
Events Rain    
T = Trace of Precipitation, MM = Missing Value Source: NWS Daily Summary

Daily Weather History Graph

Daily Weather History Graph

Search for Another Location

Airport or City:

Astronomy

Oct. 06, 2019 Rise Set
Actual Time 7:23 AM EDT 6:57 PM EDT
Civil Twilight 6:56 AM EDT 7:24 PM EDT
Nautical Twilight 6:25 AM EDT 7:55 PM EDT
Astronomical Twilight 5:53 AM EDT 8:27 PM EDT
Moon 3:35 PM EDT 12:20 AM EDT
Length of Visible Light 12h 27m
Length of Day
11h 33m
First Quarter, 59% of the Moon is Illuminated
Oct 6
First Quarter
Oct 13
Full
Oct 21
Last Quarter
Oct 27
New
Nov 4
First Quarter

Hourly Weather History & Observations

Time (EDT) Temp. Dew Point Humidity Pressure Visibility Wind Dir Wind Speed Gust Speed Precip Events Conditions
12:53 AM 59.0 °F 48.0 °F 67% 30.08 in 10.0 mi SSE 6.9 mph - N/A   Clear
1:53 AM 57.0 °F 48.0 °F 72% 30.08 in 10.0 mi SE 5.8 mph - N/A   Clear
2:53 AM 57.0 °F 48.0 °F 72% 30.09 in 10.0 mi SE 5.8 mph - N/A   Mostly Cloudy
3:53 AM 57.0 °F 48.0 °F 72% 30.06 in 10.0 mi SSE 5.8 mph - N/A   Clear
4:53 AM 57.9 °F 48.9 °F 72% 30.05 in 10.0 mi South 8.1 mph - N/A   Clear
5:53 AM 59.0 °F 50.0 °F 72% 30.07 in 10.0 mi Calm Calm - N/A   Scattered Clouds
6:53 AM 60.1 °F 51.1 °F 72% 30.09 in 10.0 mi South 5.8 mph - N/A   Mostly Cloudy
7:53 AM 62.1 °F 53.1 °F 72% 30.12 in 10.0 mi SSW 9.2 mph - N/A   Overcast
8:05 AM 63.0 °F 53.1 °F 70% 30.12 in 10.0 mi South 11.5 mph - N/A   Overcast
8:53 AM 64.0 °F 54.0 °F 70% 30.13 in 10.0 mi SW 8.1 mph - N/A   Overcast
9:53 AM 66.0 °F 55.0 °F 68% 30.13 in 10.0 mi SSW 12.7 mph 18.4 mph N/A   Scattered Clouds
10:53 AM 68.0 °F 57.0 °F 68% 30.13 in 10.0 mi SSW 11.5 mph 20.7 mph N/A   Clear
11:53 AM 68.0 °F 57.9 °F 70% 30.14 in 10.0 mi SW 6.9 mph 20.7 mph N/A   Overcast
12:16 PM 68.0 °F 59.0 °F 73% 30.15 in 10.0 mi SW 10.4 mph 23.0 mph N/A   Overcast
12:53 PM 68.0 °F 60.1 °F 76% 30.15 in 10.0 mi SSW 13.8 mph 21.9 mph 0.00 in   Overcast
1:53 PM 68.0 °F 61.0 °F 78% 30.14 in 10.0 mi SSW 6.9 mph - N/A   Overcast
2:36 PM 66.9 °F 62.1 °F 84% 30.13 in 8.0 mi SSW 10.4 mph - 0.00 in Rain Light Rain
2:53 PM 66.9 °F 62.1 °F 84% 30.13 in 10.0 mi South 11.5 mph - 0.00 in   Overcast
3:53 PM 66.9 °F 62.1 °F 84% 30.13 in 10.0 mi South 8.1 mph - N/A   Overcast
4:53 PM 66.9 °F 62.1 °F 84% 30.12 in 10.0 mi SSW 8.1 mph - N/A   Overcast
5:53 PM 66.9 °F 62.1 °F 84% 30.11 in 10.0 mi South 9.2 mph - N/A   Overcast
6:53 PM 66.0 °F 62.1 °F 87% 30.11 in 9.0 mi SSW 8.1 mph - 0.00 in Rain Light Rain
7:13 PM 66.0 °F 63.0 °F 90% 30.11 in 10.0 mi South 6.9 mph - 0.00 in   Mostly Cloudy
7:46 PM 66.0 °F 63.0 °F 90% 30.11 in 10.0 mi South 5.8 mph - 0.00 in   Overcast
7:53 PM 66.0 °F 63.0 °F 90% 30.11 in 10.0 mi South 6.9 mph - 0.00 in   Overcast
8:00 PM 66.0 °F 63.0 °F 90% 30.11 in 10.0 mi South 8.1 mph - N/A   Overcast
8:53 PM 66.0 °F 63.0 °F 90% 30.12 in 10.0 mi South 5.8 mph - 0.00 in Rain Light Rain
9:53 PM 66.0 °F 62.1 °F 87% 30.12 in 10.0 mi South 3.5 mph - 0.00 in   Overcast
10:39 PM 64.9 °F 63.0 °F 93% 30.13 in 2.5 mi West 5.8 mph - 0.09 in Rain Rain
10:48 PM 64.4 °F 62.6 °F 94% 30.12 in 2.0 mi WNW 4.6 mph - 0.12 in Rain Rain
10:53 PM 64.0 °F 63.0 °F 96% 30.12 in 3.0 mi WNW 4.6 mph - 0.12 in Rain Light Rain
11:00 PM 64.0 °F 63.0 °F 96% 30.12 in 4.0 mi WNW 4.6 mph - 0.01 in Rain Light Rain
11:11 PM 64.0 °F 63.0 °F 96% 30.11 in 2.5 mi NW 6.9 mph - 0.03 in Rain Rain
11:20 PM 64.0 °F 62.1 °F 93% 30.11 in 5.0 mi NNW 10.4 mph - 0.03 in Rain Light Rain
11:34 PM 63.0 °F 62.1 °F 97% 30.10 in 7.0 mi NNW 6.9 mph - 0.03 in Rain Light Rain
11:53 PM 63.0 °F 62.1 °F 97% 30.10 in 4.0 mi NNW 4.6 mph - 0.05 in Rain Rain